Volver al catálogo

STARLINK-34035

ActivoComunicacionesVLEO
NORAD 63937·PAYLOAD·🇺🇸 United States

Lanzado May 13, 2025 desde Vandenberg Space Force Base

Loading…

Próximos Pases (próximas 24 horas)

TLE

ActualizadoSource: CelesTrak SupGP

Época: Sep 14, 2026, 22:47 UTC

1 63937C 25098M   26257.94979167 -.00030589  00000+0 -10640-2 0  2572
2 63937  69.9999 155.4072 0003336 270.3291 261.4505 15.29596951    10

Sigue STARLINK-34035 en tiempo real con AllMySat

Download on the App Store